Lid_Strength_Index
10 11 13 11 11 11 12 13 13 12 9 11 11 10 9 8 10 12 9 7 6 6 4 3 3 3 3 3 4 4 4 4 4 4 5 5 6 5 4 5 3 3 3 2
11 12 9 10 10 11 11 13 12 11 9 10 10 10 9 7 8 8 9 6 6 6 5 4 4 4 4 3 3 3 3 3 4 4 5 5 5 4 4 4 4 4 2 2
12 10 8 9 10 10 12 12 12 12 10 10 12 12 10 8 8 6 6 6 6 6 5 4 5 4 4 3 3 3 3 4 3 4 5 5 4 5 5 5 5 4 3 3
11 9 9 10 10 10 13 10 10 10 12 15 11 16 13 10 10 8 7 7 6 6 5 4 5 5 4 3 2 3 3 4 4 4 5 5 6 6 6 5 5 5 4 4
10 9 10 11 10 9 11 9 10 11 13 15 13 15 13 10 11 10 8 7 6 5 5 5 4 3 3 2 3 3 3 3 4 4 4 5 5 5 5 5 5 6 5 4
9 7 9 9 8 9 9 10 11 13 14 16 14 14 15 13 11 11 8 7 6 5 5 4 3 3 4 3 3 3 3 4 4 3 4 5 5 6 6 6 6 5 4 5
9 9 8 8 10 9 10 13 17 17 17 17 13 15 14 10 9 9 9 8 6 5 5 5 4 6 6 6 6 5 6 6 6 6 5 5 5 5 5 5 4 4 5 6
13 13 9 7 9 12 12 13 16 20 19 16 13 17 13 9 8 7 7 7 6 6 7 7 8 8 7 7 6 7 7 7 6 6 5 5 5 5 5 5 4 5 6 6
13 12 8 8 7 9 11 14 13 15 15 17 15 14 10 9 9 9 9 9 9 9 9 9 8 8 7 7 7 7 8 7 6 6 5 5 5 6 6 5 5 6 6 6
11 14 9 8 7 8 10 10 14 15 20 20 17 16 15 12 12 11 10 10 10 9 10 9 8 8 8 9 8 8 8 8 7 6 6 5 6 6 6 6 7 6 6 7
10 12 11 9 10 11 11 12 12 13 15 19 20 17 11 12 11 12 12 11 10 10 10 9 9 9 8 8 9 8 8 7 7 6 6 6 6 6 6 7 6 6 6 6
9 11 15 13 8 8 9 12 12 16 17 16 16 16 10 11 11 11 11 10 10 10 9 9 9 9 9 10 9 8 7 7 7 6 6 6 7 7 8 7 6 6 6 5
11 14 17 14 13 10 11 10 11 12 15 16 18 16 9 10 10 10 10 10 9 9 9 9 9 9 9 9 8 8 7 7 7 6 6 7 7 8 7 7 7 6 6 6
8 13 15 17 13 11 13 11 10 12 16 15 15 14 11 11 10 10 9 8 9 9 9 9 10 10 10 8 7 7 7 7 7 6 7 8 8 7 7 7 6 6 5 5
10 13 12 11 10 11 11 11 11 13 12 15 13 13 12 11 10 9 9 9 9 9 8 9 10 10 9 8 8 7 7 7 6 7 8 7 7 7 6 5 5 5 5 5
10 13 13 13 10 11 12 11 11 11 11 12 12 13 10 9 9 9 9 9 9 9 9 9 8 8 8 8 8 7 8 7 8 8 7 6 6 5 5 5 5 5 5 5
11 12 14 16 12 12 15 12 11 11 10 11 14 12 9 9 9 9 9 9 9 9 8 7 8 8 9 8 8 9 9 8 7 7 5 5 6 6 6 6 6 6 6 6
11 12 13 16 14 19 12 8 8 10 10 9 9 9 8 9 9 9 9 10 10 9 8 8 9 9 8 8 9 8 7 7 6 6 6 5 5 5 6 6 7 6 6 6
9 11 15 16 18 13 12 10 11 12 12 8 9 8 8 9 9 10 9 10 10 9 8 9 8 9 9 9 8 7 6 6 7 6 6 5 5 6 6 7 8 8 8 8
9 10 13 14 18 19 13 9 7 8 15 8 8 9 9 10 13 12 9 8 8 8 8 8 9 9 9 7 7 7 7 7 7 5 4 5 4 6 7 8 9 9 8 8
13 13 15 15 16 14 9 8 7 15 14 8 8 9 10 11 10 9 8 9 9 8 8 9 9 8 7 7 6 7 8 7 6 5 4 4 5 6 8 9 9 9 8 8
13 15 15 15 17 18 7 8 13 10 9 9 9 10 11 10 9 9 9 9 9 9 10 8 8 8 8 7 7 7 7 5 5 5 5 5 6 6 7 9 9 9 8 9
14 11 13 13 13 9 8 9 8 8 9 9 10 10 10 10 10 9 8 9 9 10 9 8 9 8 6 6 5 5 5 5 5 6 5 6 6 7 8 9 8 8 9 8
10 9 11 11 10 9 8 8 8 8 9 9 9 10 10 10 10 8 8 9 10 9 9 9 8 7 6 5 4 4 4 4 6 6 6 6 7 7 8 7 6 8 8 8
10 10 10 11 9 8 8 8 8 8 8 8 8 8 9 10 8 8 9 10 9 10 9 8 7 6 6 5 4 3 4 6 7 6 6 6 6 6 5 7 8 7 8 9
10 10 11 12 8 9 9 8 7 8 9 9 9 9 9 9 9 10 11 9 10 9 8 7 5 6 5 5 4 4 4 5 6 6 6 6 5 6 7 7 7 8 8 9